Regional Weather Roundup
Issued by NWS Newport/Morehead, NC

Current Version | Previous Version | Graphics & Text | Print | Product List | Glossary Off
Versions: 1 2 3 4 5 6 7 8 9 10 11 12 13 14 15 16 17 18 19 20 21 22 23 24 25 26 27 28 29 30 31 32 33 34 35 36 37 38 39 40 41 42 43 44 45 46 47 48 49 50

000
ASUS42 KMHX 020710
RWRMHX
WEATHER ROUNDUP FOR EASTERN NORTH CAROLINA
NATIONAL WEATHER SERVICE NEWPORT/MOREHEAD CITY NC
300 AM EDT TUE SEP 02 2014

NOTE: "FAIR" INDICATES FEW OR NO CLOUDS BELOW 12,000 FEET
WITH NO SIGNIFICANT WEATHER AND/OR OBSTRUCTIONS TO VISIBILITY

NCZ015>017-031-032-045>047-102-103-020800-
NORTH COAST

CITY           SKY/WX    TMP DP  RH WIND       PRES   REMARKS
EDENTON        PTCLDY    79  74  85 SW6       30.04S
ELIZABETH CITY PTCLDY    78  74  87 SW8       30.03S
KITTY HAWK     SUNNY     79  75  88 SW7       30.03F
MANTEO         CLEAR     78  75  90 SW8       30.05S

$$

NCZ045>047-081-094-103-104-020800-
CENTRAL COAST

CITY           SKY/WX    TMP DP  RH WIND       PRES   REMARKS
FRISCO         PTCLDY    79  77  94 W13G20    30.05F
SWANQUARTER      N/A     81 N/A N/A SW14      30.03S

$$

NCZ095-097-098-100-101-020800-
SOUTHERN COAST

CITY           SKY/WX    TMP DP  RH WIND       PRES   REMARKS
BEAUFORT       PTCLDY    81  76  84 SW12      30.07S
CEDAR ISLAND     N/A     79 N/A N/A S7        30.09S
JACKSONVILLE   CLEAR     76  75  97 SW5       30.07R
NEWPORT        NOT AVBL
PINEY ISLAND   MOSUNNY   79  78  97 SW6       30.06S
WILMINGTON     PTCLDY    78  76  93 SW3       30.07S


$$

NCZ011>013-027>030-043-044-078>080-089-090>093-098-020800-
COASTAL PLAIN

CITY           SKY/WX    TMP DP  RH WIND       PRES   REMARKS
AHOSKIE        CLEAR     75  73  94 S3        30.03F
CLINTON        PTCLDY    77  75  94 SW3       30.07S
ELIZABETHTOWN  CLEAR     77  76  96 S3        30.07F
GOLDSBORO      PTCLDY    78  77  98 SW5       30.04S
GREENVILLE     PTCLDY    77  75  94 SW8       30.06F
HAVELOCK       CLEAR     77  75  93 SW6       30.08S
KENANSVILLE    CLEAR     75  74  94 CALM      30.07F
KINSTON        CLEAR     77  75  91 SW5       30.06F
NEW BERN       CLEAR     77  74  90 SW5       30.08R
RICHLANDS      CLEAR     75  72  88 SW6       30.07F
ROANOKE RAPIDS NOT AVBL
ROCKY MOUNT    CLEAR     77  74  90 SW7       30.04F
WASHINGTON     PTCLDY    77  74  92 SW5       30.05F
WHITEVILLE     PTCLDY    76  74  93 CALM      30.07S

$$

AMZ130-135-150-152-154-156-158-170-250-252-270-ANZ085-086-088-633-658-670-020800-
MARINE OBSERVATIONS

STATION/POSITION TIME  TEMP    WIND        PRES    WAVE   SWELL
                       AIR SEA DIR/SP/G            HT/PER HT/PER
                 (UTC) (F)     (DEG/KT/KT) (MB)    (FT/S) (FT/S)
CHESAPEAKE LIGHT 0600   80     220/ 13/ 14 1016.9
BUOY 44014       0700   79 78  220/ 14/ 16 1016.3    3/10   2/10
DUCK             0700   80 75  230/ 10/ 14 1016.4
2E DUCK          0700                        N/A     2/11   2/11
OREGON INLET     0700   81 84  220/ 13/ 16 1017.3
BUOY 44095       0700      79                N/A     3/10   2/11
20E OREGON INLET NOT AVBL
HATTERAS CG      0700   81 84  230/ 12/ 17 1018.1
DIAMOND BUOY     0700   81     230/ 17/ 19 1017.6    4/ 4   2/ 9
CAPE LOOKOUT     0600   81     230/  9/ 12 1018.4
BEAUFORT LAB     0700   81 83  230/  5/ 10 1017.5
30 SE NEW RIVER  0700   82 82  220/ 14/ 16 1018.4    3/11   2/11
5 SE WRIGHTSVILL 0600   79 83  220/ 16/ 17   N/A
BUOY 41002       0626   81 83  210/ 12/ 14 1020.2    4/11   3/11
BUOY 41004       0700   83 83  210/ 10/ 10 1018.4    3/ 9   2/ 9

$$


USA.gov is the U.S. government's official web portal to all federal, state and local government web resources and services.